Location: Kellogg
(38.0159°N, 90.0546°W)
Time: 03:24:18
(UTC+00:00)

SR - Pass Details

Date: 13 September 2024
Orbit: 577 x 855 km, 66.7° (Epoch: 10 October)

Event Time Altitude Azimuth Distance (km) Brightness Sun altitude
Rises 18:21:13 0° 175° (S) 2,843 ? 54.9°
Reaches altitude 10° 18:23:53 10° 160° (SSE) 1,916 ? 54.8°
Maximum altitude 18:27:09 22° 109° (ESE) 1,298 ? 54.6°
Drops below altitude 10° 18:30:24 10° 59° (ENE) 1,892 ? 54.5°
Sets 18:33:00 0° 44° (NE) 2,797 ? 54.3°
